Regional Weather Roundup
Issued by NWS

Home | Current Version | Previous Version | Graphics & Text | Print | Product List | Glossary On
Versions: 1 2 3 4 5 6 7 8 9 10 11 12 13 14 15 16 17 18 19 20 21 22 23 24 25 26 27 28 29 30 31 32 33 34 35 36 37 38 39 40 41 42 43 44 45 46 47 48 49 50
000
ASUS45 KTFX 042010
RWRMT
MONTANA REGIONAL WEATHER ROUNDUP
NATIONAL WEATHER SERVICE GREAT FALLS MT
200 PM MDT TUE AUG 04 2015

NOTE: "FAIR" INDICATES FEW OR NO CLOUDS BELOW 12000 FEET WITH NO
SIGNIFICANT WEATHER AND/OR OBSTRUCTIONS TO VISIBILITY.

MTZ001>007-043-042100-
WEST OF THE DIVIDE

CITY           SKY/WX    TMP DP  RH WIND       PRES   REMARKS
KALISPELL      MOCLDY    83  45  26 S9        29.92F
MISSOULA       PTSUNNY   82  40  22 NW3       29.96S
BUTTE          PTSUNNY   77  41  27 NW13      30.06S
MULLAN PASS    LGT RAIN  62  43  49 SW8       30.13R
DEER LODGE       N/A     79  46  31 CALM      30.05F
EUREKA           N/A     84  43  23 S8        29.89S
HAMILTON         N/A     82  45  26 S10       29.99S
LIBBY            N/A     84  41  21 SW7       29.89F
RONAN            N/A     83  46  27 E1        30.00F
$$

MTZ008-052>055-042100-
SOUTHWEST MONTANA

CITY           SKY/WX    TMP DP  RH WIND       PRES   REMARKS
BOZEMAN        MOSUNNY   78  51  38 N6        30.00F
DILLON         MOSUNNY   81  45  28 SW13G24   30.02F
W YELLOWSTONE  PTSUNNY   68  46  45 W5        30.19S
$$

MTZ009-010-012-014-046-048-049-054-042100-
EAST SLOPES AND CENTRAL MONTANA

CITY           SKY/WX    TMP DP  RH WIND       PRES   REMARKS
CUT BANK       PTSUNNY   79  42  26 W10G16    29.94S
GREAT FALLS    PTSUNNY   83  42  23 NE7       29.94S
MALMSTROM AFB  CLOUDY    81  42  25 W7        29.93F
HELENA         MOSUNNY   83  42  23 CALM      29.93F
CONRAD           N/A     83  49  30 W6        29.98S
$$

MTZ011-013-016-021-045-047-050-051-042100-
NORTH CENTRAL MONTANA

CITY           SKY/WX    TMP DP  RH WIND       PRES   REMARKS
HAVRE          CLOUDY    81  50  33 SW12      29.89R
LEWISTOWN      LGT RAIN  68  58  70 S9        30.06R
CHINOOK          N/A     82  55  39 W7        29.89R
FORT BENTON      N/A     81  52  36 E10G18    29.93S
$$

MTZ017>020-022>027-061-062-042100-
NORTHEAST MONTANA

CITY           SKY/WX    TMP DP  RH WIND       PRES   REMARKS
GLASGOW        MOSUNNY   92  53  26 S14       29.83F
JORDAN           N/A     90  53  28 S15       29.85S
SIDNEY         SUNNY    N/A N/A N/A E14       29.89S
WOLF POINT     MOSUNNY   92  53  26 SE10G21   29.85F
MALTA            N/A     76  61  59 W8        29.84R
POPLAR           N/A     90  54  29 SE10G18   29.87F
$$

MTZ028>42-056>058-042100-
SOUTHCENTRAL AND SOUTHEAST MONTANA

CITY           SKY/WX    TMP DP  RH WIND       PRES   REMARKS
BAKER          MOSUNNY   89  53  29 SE16G30   29.93F
BILLINGS       LGT RAIN  70  56  61 W10       30.04R
LIVINGSTON     MOSUNNY   81  48  31 E17G23    30.02F
MILES CITY     CLOUDY    91  56  30 S9        29.85F
EKALAKA          N/A     85  53  33 SE15      29.93F
FORSYTH          N/A     79  54  41 W12G20    29.91R
LAUREL           N/A     66  57  72 SW2       30.03R
$$

REGIONAL REPORTS...DAKOTAS

CITY           SKY/WX    TMP DP  RH WIND       PRES   REMARKS
WILLISTON      SUNNY     86  51  29 SE12      29.93S
MINOT          SUNNY     82  48  30 VRB3G18   29.96F
DICKINSON      SUNNY     85  54  34 SE15G23   29.94F
BEACH          FAIR      84  54  34 S18       29.94F
CROSBY         FAIR      84  50  30 SE12G18   29.95S
BISMARCK       MOSUNNY   85  53  33 S8        29.96F
GRAND FORKS    MOSUNNY   76  54  46 VRB5      30.00F
FARGO          SUNNY     80  52  37 N9        29.99S
BUFFALO SD       N/A     86  55  34 SE17G28   29.88F
RAPID CITY     MOSUNNY   80  63  55 S16G23    29.96R
$$

REGIONAL REPORTS...WYOMING/IDAHO/WASHINGTON

CITY           SKY/WX    TMP DP  RH WIND       PRES   REMARKS
GILLETTE       MOSUNNY   83  52  34 S12G17    29.97F
SHERIDAN       CLOUDY    73  53  49 NW20      30.01R
BUFFALO WY     CLOUDY    73  51  46 NW20      30.05R
CODY           CLOUDY    66  55  68 N10G17    30.10F
YELLOWSTONE LA   N/A     62  49  62 CALM      30.27F
IDAHO FALLS    SUNNY     81  49  32 SW9       30.09F
SALMON         PTSUNNY   82  46  28 NW6       29.95F
BOISE          SUNNY     88  50  27 NW7       29.96F
SPOKANE        MOSUNNY   81  44  27 S13G24    29.92S
$$

REGIONAL REPORTS...ALBERTA

CITY           SKY/WX    TMP DP  RH WIND       PRES   REMARKS
EDMONTON       CLOUDY    63  55  77 N10       29.91R
CALGARY        MOSUNNY   72  54  53 NE10      29.92S
LETHBRIDGE     MOSUNNY   79  50  36 VRB3      29.90F
MEDICINE HAT   CLOUDY    81  52  36 NW12      29.85R
WATERTON GATE    N/A     75  48  38 SW12G17     N/A
MILK RIVER       N/A     79  52  38 NW13        N/A
ONEFOUR          N/A     81  46  30 W15         N/A
$$

REGIONAL REPORTS...SASKATCHEWAN

CITY           SKY/WX    TMP DP  RH WIND       PRES   REMARKS
SWIFT CURRENT  PTSUNNY   82  61  47 S18G25    29.84S
REGINA         PTSUNNY   81  54  39 S14G21    29.94S
SASKATOON      PTSUNNY   77  57  50 SE18G25   29.92F
CYPRESS HILLS    N/A     70  52  52 W7          N/A
VAL MARIE        N/A     81  54  39 SW17        N/A
ROCKGLEN         N/A     84  54  34 SE16G22     N/A
ASSINIBOIA       N/A     64  61  88 N7          N/A
$$


USA.gov is the U.S. government's official web portal to all federal, state and local government web resources and services.